FW8306 Weather Reports


time (UTC)temp
C
wind
direction
speed
KPH
gust
KPH
rain 1hr
cm
rain 24hr
cm
rain mn
cm
humidity
%
barometer
mb
20260904023102 15 0.0 0.0 0.00 0.38 0.05 93 1006.5
20260904021554 15 0.0 0.0 0.00 0.38 0.05 93 1006.6
20260904020059 14 0.0 0.0 0.00 0.38 0.05 94 1006.8
20260904014557 14 0.0 0.0 0.00 0.38 0.05 94 1006.8
20260904013057 15 0.0 0.0 0.00 0.36 0.03 94 1006.9
20260904011603 15 0.0 0.0 0.03 0.36 0.03 93 1007.1
20260904010059 15 0.0 0.0 0.03 0.36 0.03 93 1007.0
20260904004601 15 0.0 0.0 0.03 0.36 0.03 92 1007.2
20260904003058 15 0.0 0.0 0.03 0.36 0.03 92 1007.3
20260904001557 15 0.0 0.0 0.00 0.33 0.00 92 1007.0
20260903234600 15 0.0 0.0 0.00 0.33 0.00 93 1007.3
20260903233058 15 0.0 0.0 0.00 0.33 0.00 93 1007.1
20260903230103 16 0.0 0.0 0.00 0.33 0.00 92 1007.3
20260903224555 16 0.0 0.0 0.00 0.33 0.00 91 1007.5
20260903223107 16 0.0 0.0 0.00 0.33 0.00 91 1007.6
20260903221602 16 0.0 0.0 0.00 0.33 0.00 91 1007.6
20260903220058 16 0.0 0.0 0.00 0.33 0.00 91 1007.5
20260903214603 16 0.0 0.0 0.00 0.33 0.33 90 1007.4
20260903213059 16 0.0 0.0 0.00 0.33 0.33 90 1007.5
20260903211602 16 0.0 0.0 0.00 0.33 0.33 89 1007.4
20260903210112 16 0.0 0.0 0.00 0.33 0.33 89 1007.5
20260903204603 16 0.0 0.0 0.00 0.33 0.33 89 1007.4
20260903203100 16 0.0 0.0 0.00 0.33 0.33 89 1007.4
20260903201559 17 0.0 0.0 0.00 0.33 0.33 89 1007.3
20260903200057 17 0.0 0.0 0.00 0.33 0.33 88 1007.4
20260903194602 17 0.0 0.0 0.00 0.33 0.33 88 1007.4
20260903193102 17 0.0 0.0 0.00 0.33 0.33 87 1007.3
20260903191556 17 0.0 0.0 0.00 0.33 0.33 88 1007.2
20260903190059 17 0.0 0.0 0.00 0.33 0.33 89 1007.1
20260903184555 17 0.0 0.0 0.00 0.33 0.33 90 1007.2
20260903183058 17 0.0 0.0 0.00 0.33 0.33 90 1007.2
20260903181556 18 0.0 0.0 0.00 0.33 0.33 91 1006.9
20260903180114 18 0.0 0.0 0.00 0.33 0.33 91 1006.6
20260903174600 18 0.0 0.0 0.00 0.33 0.33 92 1006.6
20260903173059 18 0.0 0.0 0.00 0.33 0.33 91 1006.7
20260903171600 18 0.0 0.0 0.00 0.33 0.33 91 1006.6
20260903170058 18 0.0 0.0 0.00 0.33 0.33 91 1006.5
20260903164611 18 0.0 0.0 0.00 0.33 0.33 91 1006.5
20260903163100 19 0.0 0.0 0.00 0.33 0.33 91 1006.5
20260903161556 19 0.0 0.0 0.00 0.33 0.33 92 1006.4
20260903160111 19 0.0 0.0 0.00 0.33 0.33 94 1006.5
20260903154605 18 0.0 0.0 0.00 0.36 0.33 95 1006.5
20260903153103 18 0.0 0.0 0.03 0.36 0.33 96 1006.5
20260903151605 18 0.0 0.0 0.03 0.36 0.33 96 1006.5
20260903150103 17 0.0 0.0 0.03 0.36 0.33 96 1006.6
20260903144605 17 0.0 0.0 0.00 0.38 0.30 96 1006.7
20260903143056 17 0.0 0.0 0.00 0.36 0.28 96 1007.2
20260903141557 17 0.0 0.0 0.00 0.36 0.28 96 1007.3
20260903140100 17 0.0 0.0 0.00 0.36 0.28 96 1007.4
20260903134559 17 0.0 0.0 0.00 0.36 0.28 96 1007.4
20260903133106 16 0.0 0.0 0.00 0.36 0.28 96 1007.7
20260903131605 16 0.0 0.0 0.00 0.36 0.28 96 1007.9
20260903130125 16 0.0 0.0 0.00 0.36 0.28 96 1007.9
20260903124601 16 0.0 0.0 0.00 0.36 0.28 96 1007.9
20260903123109 16 0.0 0.0 0.00 0.36 0.28 96 1008.0
20260903121601 16 0.0 0.0 0.00 0.36 0.28 96 1008.2
20260903120105 16 0.0 0.0 0.00 0.36 0.28 96 1008.5
20260903114602 16 0.0 0.0 0.00 0.36 0.28 96 1008.7
20260903113106 16 0.0 0.0 0.00 0.36 0.28 96 1008.8
20260903111622 16 0.0 0.0 0.00 0.36 0.28 96 1009.0
20260903110123 16 0.0 0.0 0.00 0.36 0.28 96 1009.2
20260903104600 16 0.0 0.0 0.00 0.36 0.28 96 1009.2
20260903103102 16 0.0 0.0 0.00 0.36 0.28 95 1009.5
20260903101609 16 0.0 0.0 0.00 0.33 0.25 95 1009.8
20260903094604 16 0.0 0.0 0.00 0.33 0.25 94 1010.3
20260903093105 16 0.0 0.0 0.00 0.33 0.25 95 1010.7
20260903091557 16 0.0 0.0 0.03 0.30 0.23 95 1010.7
20260903090059 16 0.0 0.0 0.08 0.30 0.23 96 1010.9
20260903084607 16 0.0 0.0 0.10 0.30 0.23 96 1011.1
20260903083105 16 0.0 0.0 0.18 0.30 0.23 96 1011.2
20260903081616 16 0.0 0.0 0.18 0.28 0.18 96 1011.4
20260903080106 16 0.0 0.0 0.10 0.20 0.13 95 1011.5
20260903074608 16 0.0 0.0 0.08 0.18 0.10 95 1011.6
20260903073117 16 0.0 0.0 0.00 0.10 0.03 95 1011.7
20260903071600 16 0.0 0.0 0.00 0.08 0.00 96 1011.8
20260903070104 16 0.0 0.0 0.00 0.08 0.00 96 1011.9
20260903064603 16 0.0 0.0 0.00 0.08 0.00 96 1012.0
20260903063103 16 0.0 0.0 0.00 0.08 0.00 96 1012.1
20260903061604 16 0.0 0.0 0.00 0.08 0.00 97 1012.3
20260903060100 15 0.0 0.0 0.00 0.08 0.00 97 1012.4
20260903054603 15 0.0 0.0 0.00 0.08 0.00 97 1012.7
20260903053109 15 0.0 0.0 0.00 0.08 0.00 96 1012.8
20260903051605 15 0.0 0.0 0.00 0.08 0.00 96 1012.8
20260903050109 15 0.0 0.0 0.00 0.08 0.00 96 1013.0
20260903044607 15 0.0 0.0 0.00 0.08 0.00 96 1013.0
20260903043103 15 0.0 0.0 0.00 0.08 0.00 96 1013.0
20260903041606 15 0.0 0.0 0.00 0.08 0.00 96 1013.1
20260903040104 15 0.0 0.0 0.00 0.08 0.00 96 1013.3
20260903034559 15 0.0 0.0 0.00 0.08 0.00 96 1013.4
20260903033113 15 0.0 0.0 0.00 0.08 0.00 96 1013.5
20260903031601 14 0.0 0.0 0.00 0.08 0.00 96 1013.5
20260903030104 14 0.0 0.0 0.00 0.08 0.00 96 1013.6
20260903024607 14 0.0 0.0 0.00 0.08 0.00 96 1013.7